| time (UTC) | temp C | wind direction | speed KPH | gust KPH | rain 1hr cm | rain 24hr cm | rain mn cm | humidity % | barometer mb |
| 20260504232522 | 20 | 320 | 3.2 | 17.7 | 0.00 | 0.00 | 0.00 | 39 | 1004.3 |
| 20260504232021 | 20 | 188 | 3.2 | 11.3 | 0.00 | 0.00 | 0.00 | 38 | 1004.1 |
| 20260504231521 | 20 | 85 | 0.0 | 17.7 | 0.00 | 0.00 | 0.00 | 39 | 1004.1 |
| 20260504231021 | 20 | 268 | 4.8 | 17.7 | 0.00 | 0.00 | 0.00 | 37 | 1004.2 |
| 20260504230521 | 21 | 208 | 9.7 | 17.7 | 0.00 | 0.00 | 0.00 | 37 | 1004.3 |
| 20260504230020 | 21 | 150 | 3.2 | 12.9 | 0.00 | 0.00 | 0.00 | 36 | 1004.2 |
| 20260504230004 | 21 | 200 | 9.7 | 12.9 | 0.00 | 0.00 | 0.00 | 35 | 1004.0 |
| 20260504225020 | 21 | 224 | 1.6 | 19.3 | 0.00 | 0.00 | 0.00 | 36 | 1004.1 |
| 20260504224520 | 21 | 274 | 1.6 | 20.9 | 0.00 | 0.00 | 0.00 | 36 | 1004.1 |
| 20260504224019 | 21 | 220 | 11.3 | 22.5 | 0.00 | 0.00 | 0.00 | 34 | 1004.3 |
| 20260504223745 | 21 | 215 | 9.7 | 24.1 | 0.00 | 0.00 | 0.00 | 34 | 1004.2 |
| 20260504223019 | 21 | 286 | 3.2 | 24.1 | 0.00 | 0.00 | 0.00 | 36 | 1004.3 |
| 20260504222741 | 22 | 211 | 14.5 | 27.4 | 0.00 | 0.00 | 0.00 | 34 | 1004.3 |
| 20260504222019 | 21 | 192 | 6.4 | 27.4 | 0.00 | 0.00 | 0.00 | 34 | 1004.0 |
| 20260504221519 | 22 | 210 | 4.8 | 22.5 | 0.00 | 0.00 | 0.00 | 36 | 1004.0 |
| 20260504221239 | 22 | 224 | 9.7 | 22.5 | 0.00 | 0.00 | 0.00 | 34 | 1004.1 |
| 20260504220518 | 22 | 299 | 19.3 | 20.9 | 0.00 | 0.00 | 0.00 | 34 | 1004.1 |
| 20260504220245 | 22 | 139 | 3.2 | 24.1 | 0.00 | 0.00 | 0.00 | 34 | 1004.0 |
| 20260504215518 | 22 | 204 | 6.4 | 24.1 | 0.00 | 0.00 | 0.00 | 34 | 1004.0 |
| 20260504215242 | 22 | 217 | 12.9 | 19.3 | 0.00 | 0.00 | 0.00 | 32 | 1004.0 |
| 20260504214737 | 22 | 223 | 16.1 | 25.7 | 0.00 | 0.00 | 0.00 | 31 | 1003.9 |
| 20260504214017 | 22 | 243 | 12.9 | 25.7 | 0.00 | 0.00 | 0.00 | 32 | 1003.8 |
| 20260504213517 | 23 | 207 | 9.7 | 20.9 | 0.00 | 0.00 | 0.00 | 32 | 1003.9 |
| 20260504213016 | 22 | 227 | 4.8 | 20.9 | 0.00 | 0.00 | 0.00 | 32 | 1004.1 |
| 20260504212517 | 22 | 205 | 16.1 | 20.9 | 0.00 | 0.00 | 0.00 | 32 | 1003.8 |
| 20260504212016 | 23 | 212 | 8.0 | 19.3 | 0.00 | 0.00 | 0.00 | 34 | 1004.0 |
| 20260504211517 | 22 | 243 | 9.7 | 25.7 | 0.00 | 0.00 | 0.00 | 33 | 1004.1 |
| 20260504211016 | 22 | 215 | 14.5 | 27.4 | 0.00 | 0.00 | 0.00 | 35 | 1004.0 |
| 20260504210516 | 22 | 188 | 6.4 | 27.4 | 0.00 | 0.00 | 0.00 | 33 | 1004.0 |
| 20260504210016 | 22 | 246 | 8.0 | 27.4 | 0.00 | 0.00 | 0.00 | 33 | 1004.2 |
| 20260504205515 | 22 | 229 | 8.0 | 29.0 | 0.00 | 0.00 | 0.00 | 33 | 1004.3 |
| 20260504205015 | 22 | 236 | 11.3 | 32.2 | 0.00 | 0.00 | 0.00 | 32 | 1004.2 |
| 20260504204515 | 22 | 225 | 25.7 | 32.2 | 0.00 | 0.00 | 0.00 | 32 | 1004.0 |
| 20260504204016 | 23 | 263 | 8.0 | 29.0 | 0.00 | 0.00 | 0.00 | 33 | 1004.1 |
| 20260504203514 | 22 | 278 | 22.5 | 25.7 | 0.00 | 0.00 | 0.00 | 33 | 1004.3 |
| 20260504203014 | 23 | 210 | 11.3 | 27.4 | 0.00 | 0.00 | 0.00 | 34 | 1004.3 |
| 20260504202514 | 22 | 185 | 4.8 | 30.6 | 0.00 | 0.00 | 0.00 | 34 | 1004.3 |
| 20260504202014 | 23 | 246 | 11.3 | 30.6 | 0.00 | 0.00 | 0.00 | 33 | 1004.3 |
| 20260504201514 | 23 | 231 | 12.9 | 30.6 | 0.00 | 0.00 | 0.00 | 34 | 1004.3 |
| 20260504201235 | 23 | 226 | 8.0 | 24.1 | 0.00 | 0.00 | 0.00 | 35 | 1004.3 |
| 20260504200513 | 22 | 216 | 6.4 | 30.6 | 0.00 | 0.00 | 0.00 | 37 | 1004.5 |
| 20260504200014 | 22 | 215 | 9.7 | 30.6 | 0.00 | 0.00 | 0.00 | 37 | 1004.7 |
| 20260504195735 | 22 | 200 | 19.3 | 33.8 | 0.00 | 0.00 | 0.00 | 36 | 1004.5 |
| 20260504195013 | 22 | 215 | 9.7 | 35.4 | 0.00 | 0.00 | 0.00 | 37 | 1005.0 |
| 20260504194513 | 22 | 261 | 12.9 | 35.4 | 0.00 | 0.00 | 0.00 | 35 | 1004.8 |
| 20260504194012 | 22 | 211 | 17.7 | 35.4 | 0.00 | 0.00 | 0.00 | 35 | 1004.8 |
| 20260504193743 | 22 | 229 | 19.3 | 27.4 | 0.00 | 0.00 | 0.00 | 37 | 1005.1 |
| 20260504193012 | 22 | 218 | 19.3 | 27.4 | 0.00 | 0.00 | 0.00 | 37 | 1005.2 |
| 20260504192512 | 22 | 213 | 14.5 | 27.4 | 0.00 | 0.00 | 0.00 | 37 | 1005.1 |
| 20260504192230 | 22 | 218 | 16.1 | 25.7 | 0.00 | 0.00 | 0.00 | 38 | 1005.1 |
| 20260504191511 | 22 | 223 | 14.5 | 22.5 | 0.00 | 0.00 | 0.00 | 38 | 1005.3 |
| 20260504191012 | 22 | 252 | 8.0 | 32.2 | 0.00 | 0.00 | 0.00 | 38 | 1005.5 |
| 20260504190511 | 22 | 224 | 3.2 | 32.2 | 0.00 | 0.00 | 0.00 | 39 | 1005.4 |
| 20260504190010 | 21 | 197 | 3.2 | 30.6 | 0.00 | 0.00 | 0.00 | 39 | 1005.5 |
| 20260504185510 | 21 | 205 | 8.0 | 33.8 | 0.00 | 0.00 | 0.00 | 40 | 1005.5 |
| 20260504185010 | 21 | 200 | 16.1 | 38.6 | 0.00 | 0.00 | 0.00 | 38 | 1005.7 |
| 20260504184510 | 21 | 216 | 14.5 | 38.6 | 0.00 | 0.00 | 0.00 | 39 | 1005.7 |
| 20260504184010 | 21 | 244 | 20.9 | 33.8 | 0.00 | 0.00 | 0.00 | 39 | 1005.7 |
| 20260504183509 | 21 | 246 | 9.7 | 33.8 | 0.00 | 0.00 | 0.00 | 41 | 1005.7 |
| 20260504183009 | 21 | 232 | 19.3 | 29.0 | 0.00 | 0.00 | 0.00 | 40 | 1005.8 |
| 20260504182509 | 21 | 205 | 14.5 | 29.0 | 0.00 | 0.00 | 0.00 | 40 | 1006.0 |
| 20260504182009 | 21 | 226 | 12.9 | 30.6 | 0.00 | 0.00 | 0.00 | 41 | 1006.0 |
| 20260504181508 | 21 | 213 | 14.5 | 30.6 | 0.00 | 0.00 | 0.00 | 41 | 1006.0 |
| 20260504181008 | 21 | 215 | 16.1 | 32.2 | 0.00 | 0.00 | 0.00 | 41 | 1006.1 |
| 20260504180508 | 21 | 240 | 12.9 | 32.2 | 0.00 | 0.00 | 0.00 | 39 | 1006.1 |
| 20260504180009 | 21 | 234 | 17.7 | 38.6 | 0.00 | 0.00 | 0.00 | 42 | 1006.2 |
| 20260504175734 | 21 | 241 | 14.5 | 38.6 | 0.00 | 0.00 | 0.00 | 44 | 1006.2 |
| 20260504175008 | 21 | 208 | 22.5 | 38.6 | 0.00 | 0.00 | 0.00 | 42 | 1006.2 |
| 20260504174509 | 21 | 225 | 12.9 | 25.7 | 0.00 | 0.00 | 0.00 | 44 | 1006.1 |
| 20260504174007 | 20 | 217 | 14.5 | 40.2 | 0.00 | 0.00 | 0.00 | 43 | 1006.3 |
| 20260504173507 | 20 | 217 | 9.7 | 40.2 | 0.00 | 0.00 | 0.00 | 44 | 1006.3 |
| 20260504173007 | 20 | 216 | 20.9 | 33.8 | 0.00 | 0.00 | 0.00 | 43 | 1006.4 |
| 20260504172507 | 20 | 219 | 14.5 | 33.8 | 0.00 | 0.00 | 0.00 | 43 | 1006.4 |
| 20260504172230 | 20 | 241 | 8.0 | 45.1 | 0.00 | 0.00 | 0.00 | 45 | 1006.4 |
| 20260504171507 | 20 | 220 | 16.1 | 45.1 | 0.00 | 0.00 | 0.00 | 44 | 1006.4 |
| 20260504171006 | 19 | 212 | 27.4 | 40.2 | 0.00 | 0.00 | 0.00 | 45 | 1006.4 |
| 20260504170506 | 19 | 215 | 16.1 | 35.4 | 0.00 | 0.00 | 0.00 | 45 | 1006.4 |
| 20260504151001 | 16 | 222 | 16.1 | 33.8 | 0.00 | 0.00 | 0.00 | 48 | 1007.3 |
| 20260504150501 | 16 | 220 | 6.4 | 33.8 | 0.00 | 0.00 | 0.00 | 50 | 1007.5 |
| 20260504150231 | 16 | 213 | 19.3 | 33.8 | 0.00 | 0.00 | 0.00 | 49 | 1007.5 |
| 20260504140959 | 15 | 194 | 12.9 | 45.1 | 0.00 | 0.00 | 0.00 | 51 | 1007.4 |
| 20260504140458 | 15 | 223 | 11.3 | 45.1 | 0.00 | 0.00 | 0.00 | 50 | 1007.4 |
| 20260504140218 | 15 | 207 | 32.2 | 45.1 | 0.00 | 0.00 | 0.00 | 49 | 1007.5 |
| 20260504130456 | 14 | 195 | 14.5 | 38.6 | 0.00 | 0.00 | 0.00 | 50 | 1007.8 |
| 20260504110451 | 11 | 201 | 12.9 | 27.4 | 0.00 | 0.00 | 0.00 | 55 | 1007.9 |
| 20260504100449 | 10 | 191 | 17.7 | 25.7 | 0.00 | 0.00 | 0.00 | 53 | 1007.6 |
| 20260504081544 | 9 | 205 | 8.0 | 22.5 | 0.00 | 0.00 | 0.00 | 56 | 1008.2 |
| 20260504081304 | 9 | 231 | 14.5 | 22.5 | 0.00 | 0.00 | 0.00 | 56 | 1008.2 |
| 20260504081037 | 9 | 205 | 9.7 | 22.5 | 0.00 | 0.00 | 0.00 | 56 | 1008.5 |
| 20260504050537 | 10 | 199 | 8.0 | 20.9 | 0.00 | 0.00 | 0.00 | 52 | 1009.8 |
| 20260504045536 | 10 | 216 | 4.8 | 16.1 | 0.00 | 0.00 | 0.00 | 52 | 1010.0 |
| 20260504045036 | 11 | 211 | 9.7 | 16.1 | 0.00 | 0.00 | 0.00 | 51 | 1009.7 |
| 20260504044535 | 11 | 223 | 6.4 | 20.9 | 0.00 | 0.00 | 0.00 | 51 | 1009.8 |
| 20260504044036 | 11 | 221 | 9.7 | 22.5 | 0.00 | 0.00 | 0.00 | 50 | 1009.7 |
| 20260504043536 | 11 | 237 | 14.5 | 24.1 | 0.00 | 0.00 | 0.00 | 49 | 1009.8 |
| 20260504043035 | 11 | 198 | 14.5 | 24.1 | 0.00 | 0.00 | 0.00 | 49 | 1009.6 |
| 20260504042535 | 11 | 213 | 12.9 | 24.1 | 0.00 | 0.00 | 0.00 | 49 | 1009.5 |
| 20260504042035 | 11 | 216 | 11.3 | 24.1 | 0.00 | 0.00 | 0.00 | 49 | 1009.7 |
| 20260504041534 | 11 | 250 | 6.4 | 24.1 | 0.00 | 0.00 | 0.00 | 48 | 1009.5 |
| 20260504041303 | 11 | 195 | 12.9 | 22.5 | 0.00 | 0.00 | 0.00 | 49 | 1009.7 |
| 20260504040534 | 11 | 216 | 9.7 | 22.5 | 0.00 | 0.00 | 0.00 | 48 | 1009.7 |
| 20260504040034 | 11 | 203 | 12.9 | 22.5 | 0.00 | 0.00 | 0.00 | 48 | 1009.8 |
| 20260504035534 | 11 | 196 | 12.9 | 24.1 | 0.00 | 0.00 | 0.00 | 48 | 1009.7 |
| 20260504035034 | 11 | 224 | 4.8 | 29.0 | 0.00 | 0.00 | 0.00 | 48 | 1009.8 |
| 20260504034533 | 12 | 218 | 9.7 | 40.2 | 0.00 | 0.00 | 0.00 | 47 | 1009.5 |
| 20260504034033 | 12 | 215 | 16.1 | 40.2 | 0.00 | 0.00 | 0.00 | 47 | 1009.8 |
| 20260504033533 | 11 | 163 | 6.4 | 24.1 | 0.00 | 0.00 | 0.00 | 48 | 1009.7 |
| 20260504033033 | 12 | 202 | 6.4 | 25.7 | 0.00 | 0.00 | 0.00 | 48 | 1009.8 |
| 20260504032532 | 12 | 241 | 16.1 | 25.7 | 0.00 | 0.00 | 0.00 | 47 | 1009.6 |
| 20260504032032 | 12 | 227 | 17.7 | 30.6 | 0.00 | 0.00 | 0.00 | 47 | 1009.6 |
| 20260504031750 | 12 | 225 | 17.7 | 30.6 | 0.00 | 0.00 | 0.00 | 47 | 1009.6 |
| 20260504031031 | 12 | 220 | 14.5 | 27.4 | 0.00 | 0.00 | 0.00 | 47 | 1009.5 |
| 20260504030531 | 11 | 189 | 4.8 | 24.1 | 0.00 | 0.00 | 0.00 | 48 | 1009.6 |
| 20260504030032 | 11 | 213 | 12.9 | 24.1 | 0.00 | 0.00 | 0.00 | 48 | 1009.6 |
| 20260504025531 | 11 | 229 | 14.5 | 25.7 | 0.00 | 0.00 | 0.00 | 48 | 1009.5 |
| 20260504025031 | 11 | 186 | 12.9 | 25.7 | 0.00 | 0.00 | 0.00 | 49 | 1009.6 |
| 20260504024751 | 11 | 237 | 17.7 | 24.1 | 0.00 | 0.00 | 0.00 | 49 | 1009.6 |
| 20260504024030 | 11 | 200 | 6.4 | 30.6 | 0.00 | 0.00 | 0.00 | 50 | 1009.6 |
| 20260504023530 | 11 | 268 | 3.2 | 30.6 | 0.00 | 0.00 | 0.00 | 50 | 1009.8 |
| 20260504023030 | 11 | 224 | 22.5 | 30.6 | 0.00 | 0.00 | 0.00 | 50 | 1009.8 |
| 20260504022530 | 11 | 195 | 4.8 | 27.4 | 0.00 | 0.00 | 0.00 | 50 | 1009.9 |
| 20260504022029 | 11 | 216 | 11.3 | 25.7 | 0.00 | 0.00 | 0.00 | 50 | 1009.8 |
| 20260504021529 | 11 | 194 | 6.4 | 24.1 | 0.00 | 0.00 | 0.00 | 49 | 1009.9 |
| 20260504021247 | 11 | 212 | 3.2 | 24.1 | 0.00 | 0.00 | 0.00 | 49 | 1009.9 |
| 20260504020529 | 11 | 190 | 6.4 | 32.2 | 0.00 | 0.00 | 0.00 | 49 | 1009.9 |
| 20260504020029 | 11 | 191 | 9.7 | 32.2 | 0.00 | 0.00 | 0.00 | 49 | 1010.1 |
| 20260504015749 | 11 | 237 | 8.0 | 25.7 | 0.00 | 0.00 | 0.00 | 49 | 1009.9 |
| 20260504015028 | 11 | 229 | 9.7 | 22.5 | 0.00 | 0.00 | 0.00 | 49 | 1010.1 |
| 20260504014528 | 11 | 220 | 3.2 | 20.9 | 0.00 | 0.00 | 0.00 | 50 | 1010.2 |
| 20260504014250 | 11 | 207 | 16.1 | 29.0 | 0.00 | 0.00 | 0.00 | 50 | 1010.1 |
| 20260504013527 | 11 | 204 | 12.9 | 29.0 | 0.00 | 0.00 | 0.00 | 50 | 1010.1 |
| 20260504013027 | 11 | 224 | 8.0 | 29.0 | 0.00 | 0.00 | 0.00 | 50 | 1010.2 |
| 20260504012530 | 11 | 214 | 12.9 | 20.9 | 0.00 | 0.00 | 0.00 | 52 | 1010.4 |
| 20260504012027 | 11 | 216 | 9.7 | 20.9 | 0.00 | 0.00 | 0.00 | 53 | 1010.1 |
| 20260504011527 | 11 | 199 | 8.0 | 24.1 | 0.00 | 0.00 | 0.00 | 52 | 1010.3 |
| 20260504011026 | 11 | 200 | 8.0 | 24.1 | 0.00 | 0.00 | 0.00 | 52 | 1010.4 |
| 20260504010526 | 11 | 252 | 11.3 | 29.0 | 0.00 | 0.00 | 0.00 | 52 | 1010.1 |
| 20260504010026 | 11 | 207 | 9.7 | 29.0 | 0.00 | 0.00 | 0.00 | 52 | 1010.1 |
| 20260504005526 | 11 | 205 | 6.4 | 24.1 | 0.00 | 0.00 | 0.00 | 52 | 1010.2 |
| 20260504005249 | 11 | 186 | 8.0 | 24.1 | 0.00 | 0.00 | 0.00 | 53 | 1010.0 |
| 20260504004755 | 11 | 227 | 12.9 | 24.1 | 0.00 | 0.00 | 0.00 | 53 | 1010.2 |
| 20260504004255 | 11 | 180 | 3.2 | 24.1 | 0.00 | 0.00 | 0.00 | 53 | 1010.3 |
| 20260504003525 | 11 | 218 | 16.1 | 20.9 | 0.00 | 0.00 | 0.00 | 55 | 1010.2 |
| 20260504003257 | 11 | 216 | 8.0 | 22.5 | 0.00 | 0.00 | 0.00 | 54 | 1010.0 |
| 20260504002525 | 11 | 205 | 9.7 | 22.5 | 0.00 | 0.00 | 0.00 | 54 | 1010.1 |
| 20260504002246 | 11 | 242 | 8.0 | 24.1 | 0.00 | 0.00 | 0.00 | 57 | 1010.0 |
| 20260504001746 | 11 | 253 | 4.8 | 24.1 | 0.00 | 0.00 | 0.00 | 57 | 1010.1 |
| 20260504001024 | 11 | 202 | 6.4 | 20.9 | 0.00 | 0.00 | 0.00 | 57 | 1010.4 |
| 20260504000741 | 11 | 143 | 6.4 | 22.5 | 0.00 | 0.00 | 0.00 | 58 | 1010.2 |
| 20260504000024 | 11 | 206 | 8.0 | 22.5 | 0.00 | 0.00 | 0.00 | 58 | 1010.3 |
| 20260503235747 | 11 | 223 | 8.0 | 19.3 | 0.00 | 0.00 | 0.00 | 58 | 1010.5 |
| 20260503235023 | 11 | 301 | 1.6 | 20.9 | 0.00 | 0.00 | 0.00 | 58 | 1010.5 |
| 20260503234523 | 11 | 205 | 6.4 | 24.1 | 0.00 | 0.00 | 0.00 | 57 | 1010.7 |
| 20260503234023 | 11 | 271 | 9.7 | 24.1 | 0.00 | 0.00 | 0.00 | 56 | 1010.5 |
| 20260503233523 | 11 | 203 | 6.4 | 27.4 | 0.00 | 0.00 | 0.00 | 57 | 1010.4 |
| 20260503233022 | 11 | 336 | 9.7 | 27.4 | 0.00 | 0.00 | 0.00 | 55 | 1010.5 |